Location: Artiguedieu
(43.5000°N, 0.5454°E)
Time: 07:25:53
(UTC+00:00)

Envisat - Pass Details

Date: 06 December 2020
Orbit: 764 x 766 km, 98.1° (Epoch: 20 January)

Event Time Altitude Azimuth Distance (km) Brightness Sun altitude
Rises 05:32:47 0° 17° (NNE) 3,243 6.3 -18.1°
Reaches altitude 10° 05:35:09 10° 22° (NNE) 2,312 5.6 -17.7°
Maximum altitude 05:40:09 55° 100° (E) 922 3.8 -16.8°
Drops below altitude 10° 05:45:06 10° 178° (S) 2,294 5.7 -16.0°
Sets 05:47:27 0° 182° (S) 3,215 6.4 -15.6°
